Regional Weather Roundup
Issued by NWS

Home | Current Version | Previous Version | Graphics & Text | Print | Product List | Glossary Off
Versions: 1 2 3 4 5 6 7 8 9 10 11 12 13 14 15 16 17 18 19 20 21 22 23 24 25 26 27 28 29 30 31 32 33 34 35 36 37 38 39 40 41 42 43 44 45 46 47 48 49 50

000
ASUS43 KMKX 291820
RWRWI

WISCONSIN REGIONAL WEATHER ROUNDUP
NATIONAL WEATHER SERVICE MILWAUKEE/SULLIVAN WI
100 PM CDT SUN MAR 29 2015

NOTE: "FAIR" INDICATES FEW OR NO CLOUDS BELOW 12,000 FEET WITH NO
SIGNIFICANT WEATHER AND/OR OBSTRUCTIONS TO VISIBILITY.

WIZ001-002-006>008-014>016-023>028-291900-
NORTHWEST WISCONSIN

CITY           SKY/WX    TMP DP  RH WIND       PRES   REMARKS
SUPERIOR ARPT  CLOUDY    36  35  93 W13G18    29.54R WCI  28
6HR MIN TEMP:  32; 6HR MAX TEMP:  37; 6HR PCP:  0.12;

ASHLAND        LGT SNOW  34  33  96 SW10      29.50S FOG     WCI  26
6HR MIN TEMP:  33; 6HR MAX TEMP:  36; 6HR PCP:  0.07;

HAYWARD        LGT SNOW  34  33  96 W8        29.53R FOG     WCI  27
6HR MIN TEMP:  32; 6HR MAX TEMP:  34; 6HR PCP:  0.13;

SIREN          LGT SNOW  34  33  96 NW10G20   29.59R WCI  26
6HR MIN TEMP:  34; 6HR MAX TEMP:  38; 6HR PCP:  0.12;

CUMBERLAND     LGT RAIN  37  36  93 W18G24    29.54R WCI  27
RICE LAKE      LGT RAIN  39  37  92 W15G22    29.57R WCI  31
6HR MIN TEMP:  32; 6HR MAX TEMP:  38; 6HR PCP:  0.02;

CHETEK         DRIZZLE   37  37  97 W3        29.54S
6HR MIN TEMP:  32; 6HR MAX TEMP:  37; 6HR PCP:  0.02;

LADYSMITH      LGT RAIN  34  33  96 SW6       29.55S WCI  29
6HR MIN TEMP:  32; 6HR MAX TEMP:  34; 6HR PCP:  0.07;

EAU CLAIRE     LGT RAIN  41  38  89 SW13      29.56S FOG
6HR MIN TEMP:  32; 6HR MAX TEMP:  40; 6HR PCP:  0.03;

MENOMONIE      LGT RAIN  42  40  93 SW14G20   29.56S
6HR MIN TEMP:  32; 6HR MAX TEMP:  42;

NEW RICHMOND   RAIN      39  37  94 NW22G44   29.62R WCI  29
6HR MIN TEMP:  33; 6HR MAX TEMP:  42; 6HR PCP:  0.07;

OSCEOLA        RAIN      38  38  99 NW14G25   29.65R WCI  30
6HR MIN TEMP:  34; 6HR MAX TEMP:  43; 6HR PCP:  0.08;

$$

WIZ003>005-009-010-017-018-291900-
NORTH CENTRAL WISCONSIN

CITY           SKY/WX    TMP DP  RH WIND       PRES   REMARKS
MANITOWISH WTR LGT SNOW  32  32 100 SW9G16    29.49F VSB 1   WCI  24
6HR MIN TEMP:  29; 6HR MAX TEMP:  32; 6HR PCP:  0.04;

ARBOR VITAE    MIX PCPN  34  32  92 SW7       29.50F WCI  28
6HR MIN TEMP:  32; 6HR MAX TEMP:  34; 6HR PCP:  0.07;

WOODRUFF       MIX PCPN  34  32  92 SW7       29.50F WCI  28
6HR MIN TEMP:  32; 6HR MAX TEMP:  34; 6HR PCP:  0.07;

RHINELANDER    LGT SNOW  32  29  88 SW15G24   29.51F FOG     WCI  22
6HR MIN TEMP:  29; 6HR MAX TEMP:  32; 6HR PCP:  0.06;

EAGLE RIVER    MIX PCPN  32  29  89 SW8       29.50F WCI  24
6HR MIN TEMP:  29; 6HR MAX TEMP:  32;

LAND O LAKES   LGT SNOW  32  30  93 SW9G16    29.50F WCI  24
6HR MIN TEMP:  30; 6HR MAX TEMP:  32;

PHILLIPS       LGT SNOW  32  32  99 SW9       29.50F WCI  24
6HR MIN TEMP:  30; 6HR MAX TEMP:  32; 6HR PCP:  0.04;

TOMAHAWK       LGT RAIN  32  30  93 CALM      29.53F
6HR MIN TEMP:  28; 6HR MAX TEMP:  32;

MEDFORD        MIX PCPN  32  32  99 SW9G16    29.54S WCI  24
6HR MIN TEMP:  29; 6HR MAX TEMP:  32; 6HR PCP:  0.04;

MERRILL        LGT SNOW  32  32  99 SW9G16    29.55F WCI  25
6HR MIN TEMP:  30; 6HR MAX TEMP:  32; 6HR PCP:  0.07;

$$

WIZ029-030-035-036-043>047-291900-
CENTRAL WISCONSIN

CITY           SKY/WX    TMP DP  RH WIND       PRES   REMARKS
WAUSAU         LGT RAIN  33  31  92 S17G25    29.55F FOG     WCI  22
6HR MIN TEMP:  30; 6HR MAX TEMP:  33; 6HR PCP:  0.08;

MOSINEE        CLOUDY    32  32 100 S14       29.57F FOG     WCI  22
MARSHFIELD     CLOUDY    35  32  88 SW18      29.57F FOG     WCI  24
6HR MIN TEMP:  31; 6HR MAX TEMP:  35; 6HR PCP:  0.03;

STEVENS POINT  CLOUDY    32  30  94 SW15G24   29.61F FOG     WCI  21
6HR MIN TEMP:  29; 6HR MAX TEMP:  32; 6HR PCP:  0.03;

WAUPACA        CLOUDY    35  32  87 S15G23    29.64F WCI  25
6HR MIN TEMP:  32; 6HR MAX TEMP:  36; 6HR PCP:  0.01;

WAUTOMA        CLOUDY    34  33  96 SW14G22   29.67F WCI  25
6HR MIN TEMP:  30; 6HR MAX TEMP:  34; 6HR PCP:  0.04;

WISC RAPIDS    CLOUDY    34  31  88 SW17G25   29.64F WCI  23
6HR MIN TEMP:  31; 6HR MAX TEMP:  34; 6HR PCP:  0.04;

CAMP DOUGLAS   CLOUDY    37  37 100 S13G25    29.64F WCI  29
                                      6HR PCP:  0.05;

$$

WIZ011>013-019>022-031-037>040-048>050-291900-
NORTHEAST WISCONSIN

CITY           SKY/WX    TMP DP  RH WIND       PRES   REMARKS
ANTIGO         CLOUDY    31  31  99 SW14      29.55F FOG     WCI  21
6HR MIN TEMP:  28; 6HR MAX TEMP:  31; 6HR PCP:  0.02;

SHAWANO        CLOUDY    34  31  90 SW8       29.63F WCI  27
6HR MIN TEMP:  32; 6HR MAX TEMP:  35; 6HR PCP:  0.04;

OCONTO         CLOUDY    32  32  99 S16G24    29.65F WCI  21
6HR MIN TEMP:  31; 6HR MAX TEMP:  35; 6HR PCP:  0.05;

STURGEON BAY   CLOUDY    32  27  80 S17G29    29.67F WCI  21
6HR MIN TEMP:  28; 6HR MAX TEMP:  36;

GREEN BAY      NOT AVBL
MANITOWOC      LGT RAIN  34  30  86 S16       29.72F FOG     WCI  23
6HR MIN TEMP:  30; 6HR MAX TEMP:  37; 6HR PCP:  0.05;

APPLETON       CLOUDY    32  28  86 SW16G22   29.69F WCI  21
CLINTONVILLE   CLOUDY    32  32 100 SW13G21   29.62F WCI  22
OSHKOSH        CLOUDY    33  29  85 S23G36    29.69F WCI  21
6HR MIN TEMP:  31; 6HR MAX TEMP:  34; 6HR PCP:  0.05;

$$

WIZ032>034-041-042-053>061-291900-
SOUTHWEST WISCONSIN

CITY           SKY/WX    TMP DP  RH WIND       PRES   REMARKS
LA CROSSE      CLOUDY    44  37  76 S15       29.65F
6HR MIN TEMP:  34; 6HR MAX TEMP:  44; 6HR PCP:  0.03;

SPARTA         CLOUDY    40  34  80 SW10G17   29.65F WCI  33
6HR MIN TEMP:  33; 6HR MAX TEMP:  40; 6HR PCP:  0.04;

VIROQUA        CLOUDY    38  38 100 SW16G25   29.67F WCI  29
6HR MIN TEMP:  31; 6HR MAX TEMP:  38; 6HR PCP:  0.04;

BOSCOBEL       CLOUDY    40  33  76 SW15      29.75F WCI  32
6HR MIN TEMP:  34; 6HR MAX TEMP:  40; 6HR PCP:  0.05;

PRAIRIE DU CHI CLOUDY    43  35  74 S6        29.74F
6HR MIN TEMP:  34; 6HR MAX TEMP:  43; 6HR PCP:  0.06;

PLATTEVILLE    CLOUDY    35  33  92 S20       29.77F WCI  25
6HR MIN TEMP:  32; 6HR MAX TEMP:  35; 6HR PCP:  0.04;

$$

WIZ056-057-062-063-064-067-068-291900-
SOUTH CENTRAL WISCONSIN

CITY           SKY/WX    TMP DP  RH WIND       PRES   REMARKS
REEDSBURG      CLOUDY    34  32  91 SW16G22   29.70F WCI  24
6HR MIN TEMP:  32; 6HR MAX TEMP:  34; 6HR PCP:  0.07;

BARABOO/DELLS  MIX PCPN  34  32  90 SW23G39   29.68F WCI  22
6HR MIN TEMP:  31; 6HR MAX TEMP:  34; 6HR PCP:  0.01;

LONE ROCK      CLOUDY    36  31  82 SW12G18   29.75F WCI  28
6HR MIN TEMP:  33; 6HR MAX TEMP:  36; 6HR PCP:  0.06;

MINERAL POINT  CLOUDY    36  32  87 S20G26    29.75F WCI  25
MADISON        CLOUDY    34  29  82 S15G25    29.77F WCI  24
6HR MIN TEMP:  31; 6HR MAX TEMP:  34; 6HR PCP:  0.07;

MIDDLETON      CLOUDY    35  31  86 SW9       29.75F WCI  28
6HR MIN TEMP:  32; 6HR MAX TEMP:  35; 6HR PCP:  0.04;

WATERTOWN      CLOUDY    32  32  99 SW18      29.78F WCI  20
6HR MIN TEMP:  29; 6HR MAX TEMP:  33; 6HR PCP:  0.04;

MONROE         CLOUDY    32  32 100 S23G32    29.78F WCI  19
JANESVILLE     CLOUDY    34  32  93 S12G17    29.83  WCI  25
$$

WIZ051-052-058>065-066-070>072-291900-
SOUTHEAST WISCONSIN

CITY           SKY/WX    TMP DP  RH WIND       PRES   REMARKS
MILWAUKEE      LGT RAIN  34  28  79 SW26G35   29.80F WCI  21
6HR MIN TEMP:  30; 6HR MAX TEMP:  38; 6HR PCP:  0.02;

WAUKESHA       DRIZZLE   30  28  93 S15G35    29.81S WCI  19
MILWAUKEE/TIMM LGT RAIN  34  28  80 S26G35    29.81S FOG     WCI  21
RACINE         CLOUDY    35  28  75 S18G36    29.84F WCI  24
6HR MIN TEMP:  30; 6HR MAX TEMP:  39; 6HR PCP:  0.02;

BURLINGTON     MIX PCPN  32  29  90 S18       29.82F WCI  20
6HR MIN TEMP:  29; 6HR MAX TEMP:  35; 6HR PCP:  0.02;

KENOSHA        CLOUDY    35  29  78 S25G41    29.83F WCI  23
6HR MIN TEMP:  31; 6HR MAX TEMP:  38; 6HR PCP:  0.02;

FOND DU LAC    CLOUDY    33  29  85 S28G41    29.72F WCI  20
6HR MIN TEMP:  30; 6HR MAX TEMP:  35; 6HR PCP:  0.05;

SHEBOYGAN      LGT SNOW  33  30  88 S21G30    29.76F FOG     WCI  21
6HR MIN TEMP:  30; 6HR MAX TEMP:  36; 6HR PCP:  0.04;

WEST BEND      DRIZZLE   32  30  93 SW20      29.76F WCI  20
JUNEAU         CLOUDY    32  30  92 S20       29.77F WCI  20
6HR MIN TEMP:  29; 6HR MAX TEMP:  33; 6HR PCP:  0.01;

$$

LSZ147-162-291900-
LAKE SUPERIOR

STATION/POSITION TIME  TEMP    WIND        PRES    WAVE
                       AIR SEA DIR/SP/G            HT/PER
                 (UTC) (F)     (DEG/KT/KT) (MB)    (FT/S)
DEVILS ISLAND    1800   33     250/ 18/ 22  998.6F
PORT WING        1740   35     220/  6/ 14  999.7R
SAXON HARBOR     1700   36     210/  9/ 21  998.6S
$$

LMZ867-665-643>646-291900-
LAKE MICHIGAN

STATION/POSITION TIME  TEMP    WIND        PRES    WAVE
                       AIR SEA DIR/SP/G            HT/PER



USA.gov is the U.S. government's official web portal to all federal, state and local government web resources and services.